Theta_e
341 345 343 341 342 341 339 335 332 330 329 328 326 324 322 321 319 317 315 314 313 313 313 313 313 314 314 313 313 314 315 316 317 316 315 314 314 314 313 313 312 313 314
341 341 339 338 337 334 331 328 326 323 320 316 314 313 312 312 311 311 312 313 313 313 313 311 310 309 310 312 313 314 313 314 313 313 312 313 313 313 313 313 314 315 315
335 336 336 330 325 321 319 316 314 313 312 311 311 312 313 313 314 314 313 312 311 311 311 311 311 311 313 313 313 313 313 313 314 314 314 313 313 314 314 314 314 314 315
332 327 321 317 316 314 313 312 312 312 312 313 314 314 314 314 314 311 309 311 311 310 309 311 312 313 312 313 313 313 313 313 313 313 313 313 312 313 312 312 313 313 314
319 316 315 313 312 312 311 312 312 312 312 311 313 314 313 311 309 310 310 310 313 315 315 314 312 312 313 313 313 313 312 311 311 310 310 311 314 314 313 313 312 312 311
314 313 313 312 312 312 312 310 309 308 309 309 309 308 308 307 307 310 312 314 314 314 315 314 313 311 310 311 310 310 310 310 310 310 310 310 313 313 313 312 310 309 308
312 312 311 311 309 309 309 308 308 308 307 306 306 306 307 306 308 312 313 314 315 315 312 310 310 310 310 313 314 314 315 314 313 312 311 313 312 313 312 312 311 309 309
311 311 310 309 309 308 308 308 307 306 306 305 305 305 306 307 309 312 313 314 313 312 312 310 311 312 313 315 315 315 315 314 314 314 312 312 313 312 312 312 310 309 310
310 310 309 308 307 307 308 307 307 308 304 304 304 305 307 309 311 311 313 313 313 314 312 312 313 313 313 313 314 314 314 314 314 314 313 312 312 312 312 310 308 309 308
309 308 307 306 307 307 307 308 308 307 307 306 305 308 309 310 310 311 313 313 313 314 313 313 313 312 312 312 311 311 311 312 312 313 312 312 311 310 309 308 308 307 307
308 307 306 307 307 307 308 307 308 308 308 307 309 309 310 309 310 312 313 313 312 312 311 312 311 310 311 311 310 309 309 310 311 312 312 313 310 310 309 307 306 307 307
305 306 306 307 307 307 307 307 308 309 309 309 309 309 308 308 310 311 311 311 310 310 310 310 311 311 310 311 311 311 309 310 311 312 312 311 310 311 310 309 307 304 306
304 305 305 305 305 306 307 308 308 308 308 308 308 309 309 308 309 310 310 310 309 309 309 312 312 312 312 312 311 310 310 310 310 310 310 311 311 312 311 311 308 306 308
304 303 303 303 303 305 306 306 306 307 305 304 306 307 307 308 308 309 309 310 309 310 311 312 313 312 312 313 313 311 310 310 310 310 309 309 309 311 311 312 312 309 308
303 302 302 302 302 303 304 304 305 305 304 304 304 305 306 306 304 304 306 308 308 308 311 312 313 313 313 313 313 312 311 311 310 310 310 310 309 309 311 312 311 311 310
302 301 301 300 300 303 303 302 300 299 300 299 298 299 299 301 300 302 303 306 307 307 310 310 310 306 309 311 311 311 311 312 311 310 310 309 309 309 307 308 311 310 310
301 300 300 300 300 301 300 298 295 297 298 297 296 296 295 295 297 300 301 302 304 307 306 298 297 297 299 305 308 308 310 310 311 312 311 310 308 309 307 305 307 309 309
299 300 299 299 298 298 297 297 294 293 294 297 296 296 296 295 294 296 299 300 301 303 302 295 292 293 294 296 302 307 308 310 311 311 311 311 309 308 307 305 306 307 309
299 299 298 297 297 296 296 295 294 296 293 294 295 294 294 294 294 294 295 297 296 293 291 290 290 291 291 292 295 299 304 307 309 310 310 311 309 308 308 306 306 306 307
297 298 297 297 295 294 293 293 293 292 292 292 292 293 293 293 293 292 293 292 292 292 290 289 289 289 290 291 292 294 299 304 308 309 309 310 309 310 309 309 308 307 306
294 294 294 294 294 293 292 292 292 292 292 292 291 292 292 292 292 292 291 291 291 291 291 289 288 289 289 290 291 291 293 297 303 307 306 308 307 310 310 309 308 308 306
294 293 292 292 291 292 291 291 291 291 291 291 291 291 291 291 291 292 291 291 291 290 290 289 288 288 289 289 290 290 291 292 298 303 305 305 306 308 310 310 310 308 308
293 293 293 292 292 291 291 291 291 291 290 290 291 290 290 290 290 290 290 290 290 290 289 289 288 288 288 289 289 289 290 291 294 298 301 302 303 304 306 309 310 310 310
293 293 293 292 292 291 291 290 290 290 290 290 290 290 289 289 289 289 289 289 289 289 288 288 288 287 288 288 289 289 289 290 291 296 297 298 300 302 302 305 308 310 309
293 293 292 292 291 291 291 291 290 290 290 289 289 289 289 288 288 288 288 288 288 288 287 287 287 287 287 288 288 289 289 289 290 293 296 295 297 300 300 300 302 306 308
292 292 292 291 291 291 290 290 290 290 289 289 288 288 288 288 287 287 287 287 287 287 286 286 287 286 287 288 288 288 289 289 290 290 292 294 294 295 297 297 300 300 304
Wind_Speed
24 22 22 21 19 16 14 12 10 8 5 4 4 4 6 8 11 13 16 18 20 21 23 25 27 28 29 28 27 26 26 27 36 45 41 44 43 42 38 36 35 32 31
26 25 22 18 12 12 10 9 7 5 2 3 5 6 7 10 14 15 17 20 23 24 26 28 30 29 26 24 23 24 27 28 33 44 43 40 38 40 42 40 36 37 35
23 19 14 14 14 13 9 6 3 1 2 4 6 7 9 11 13 16 19 22 24 25 22 19 19 18 18 22 26 29 30 30 31 35 43 43 44 45 46 43 45 39 34
19 19 20 17 14 11 8 6 3 0 2 3 5 8 11 14 17 20 20 16 15 16 15 15 16 19 21 25 27 28 32 35 38 40 43 45 46 45 40 38 37 35 33
24 21 18 15 13 9 6 3 1 3 5 6 7 8 13 16 18 15 13 14 14 13 14 17 19 20 21 25 28 31 34 36 38 42 43 37 31 35 33 33 33 34 32
22 21 17 14 10 6 3 3 4 6 6 6 9 10 12 15 15 14 14 15 15 16 18 19 19 22 27 30 33 33 35 40 37 29 29 33 33 32 31 30 32 34 33
19 16 12 9 7 5 5 5 7 10 9 9 9 10 11 12 14 15 17 16 14 16 19 23 25 28 32 35 32 28 27 23 23 27 29 30 31 29 27 27 28 33 34
18 14 11 8 6 6 7 8 11 13 14 15 12 10 11 12 14 14 17 17 20 20 22 27 30 33 33 31 28 26 26 24 23 26 26 26 26 27 22 25 28 30 30
16 12 10 8 9 9 11 12 11 11 12 13 12 9 10 11 11 15 19 21 25 27 27 28 31 32 29 27 28 29 26 23 22 20 21 22 19 16 14 21 25 25 24
15 14 11 10 10 12 12 11 12 12 12 10 10 10 10 11 12 18 19 23 26 29 29 27 25 25 24 22 23 25 26 24 25 19 19 20 19 22 24 23 19 18 16
14 12 13 12 12 11 10 10 10 12 12 10 8 7 9 12 15 16 15 21 28 33 32 32 29 22 18 20 25 28 28 25 19 19 23 25 23 21 28 22 18 12 8
14 14 12 12 12 11 10 10 10 10 10 10 9 9 12 14 13 14 16 18 23 28 31 31 30 24 24 25 27 29 31 26 27 24 25 30 25 25 23 26 17 11 5
15 16 15 14 14 13 13 12 11 10 11 12 13 13 14 13 13 12 11 11 17 23 27 28 32 29 27 27 30 31 31 34 39 33 31 30 31 24 20 21 20 14 12
17 16 15 16 15 16 13 13 13 13 15 15 15 14 15 14 14 14 14 13 15 17 22 27 33 35 34 30 29 28 33 37 38 37 38 40 33 26 27 17 14 14 6
18 15 15 16 16 17 16 15 16 16 19 19 19 18 17 17 19 17 17 17 15 15 18 24 28 35 35 35 34 36 38 38 33 34 37 39 36 39 25 19 18 13 15
20 16 15 15 16 16 16 18 20 20 20 22 26 27 28 20 10 10 16 13 9 10 18 27 29 35 36 38 39 40 38 38 39 41 37 35 34 34 35 23 10 10 9
19 16 13 16 16 16 17 20 23 19 18 20 22 25 27 29 25 14 14 12 11 11 20 29 30 32 34 34 36 38 39 39 38 40 43 42 44 39 35 29 20 14 13
20 15 12 15 16 16 18 18 19 25 22 19 22 22 22 25 26 23 19 16 20 21 24 28 30 30 31 33 33 34 35 37 38 39 41 44 44 42 35 33 25 20 17
13 17 18 17 16 16 16 19 21 19 21 18 16 19 22 20 23 24 24 26 26 28 31 30 30 29 29 31 32 33 33 34 36 38 39 39 44 41 38 38 31 24 20
18 18 16 14 15 16 18 18 17 19 21 23 20 17 18 21 24 27 25 28 27 26 30 31 30 30 30 30 31 32 33 32 32 35 38 39 41 40 34 38 39 34 28
13 11 11 12 13 14 14 14 16 16 18 20 22 15 16 22 24 25 27 25 26 25 27 30 31 31 31 31 31 32 33 32 31 31 36 37 40 36 35 33 32 35 29
14 15 18 18 16 13 15 14 15 15 15 18 19 21 18 18 21 23 24 23 23 24 24 26 30 31 31 32 33 33 33 33 30 28 29 33 36 37 31 31 32 28 31
14 16 18 17 16 16 16 15 18 18 18 17 19 18 18 20 17 20 22 21 20 22 23 24 26 28 29 29 30 32 33 32 28 27 27 30 31 35 35 32 30 29 27
17 19 19 16 16 15 14 13 13 14 14 14 13 16 17 14 17 15 16 19 18 19 21 23 24 26 27 28 29 30 30 29 25 21 23 27 27 27 33 32 31 26 25
16 17 18 17 14 12 15 15 15 13 14 15 15 12 13 15 13 16 13 12 13 16 19 21 23 24 25 25 26 28 28 27 26 20 20 22 24 23 28 29 31 30 25
11 13 14 13 13 12 9 8 9 9 9 8 9 10 10 12 14 12 15 14 14 15 17 20 22 22 23 23 24 25 25 26 25 23 19 19 22 24 25 27 26 30 29
Wind_Direction
171 170 174 180 182 177 184 178 181 196 211 221 233 265 284 298 296 300 301 297 296 297 298 300 302 303 302 302 303 303 300 297 297 298 301 304 303 299 297 295 299 300 297
161 168 169 171 174 168 163 153 156 176 215 283 302 313 309 296 300 302 304 310 311 311 310 308 306 306 308 312 308 304 302 301 300 299 302 305 307 309 307 307 304 303 298
148 154 156 150 141 134 134 135 133 117 12 2 351 325 311 307 309 312 312 310 309 310 316 321 322 326 325 320 310 304 304 304 302 300 302 303 303 305 305 301 300 302 297
138 138 135 130 128 126 119 117 111 50 346 348 321 312 305 307 312 317 321 329 333 330 326 329 334 332 322 312 309 308 307 305 304 303 303 305 304 306 305 300 299 294 289
126 124 116 111 110 115 122 113 359 342 331 310 296 292 306 313 324 346 355 350 349 344 343 344 333 324 309 310 310 309 310 310 310 309 305 308 312 313 312 312 309 311 307
110 107 113 119 120 111 70 360 331 331 328 318 325 341 348 356 351 10 4 358 352 354 351 346 342 340 328 319 313 309 308 307 307 311 308 308 309 313 314 314 313 311 302
114 115 113 110 107 80 46 19 5 2 8 5 25 11 357 352 12 16 8 5 2 4 2 357 348 336 330 330 328 327 332 326 320 315 313 310 311 315 313 315 317 313 305
113 113 108 99 82 59 46 49 48 34 35 44 48 29 10 17 9 12 18 18 23 16 10 358 344 340 339 340 340 337 333 332 331 333 325 320 314 315 311 317 315 307 308
109 105 97 91 88 76 67 59 44 37 52 62 54 41 34 25 7 17 17 25 25 18 10 358 351 349 350 347 342 347 347 347 341 337 334 333 323 331 318 321 325 312 311
111 98 90 86 79 69 62 58 51 51 65 83 70 52 41 24 15 20 21 34 27 19 15 8 4 2 355 351 351 351 349 351 348 358 6 1 360 358 340 327 316 310 306
124 104 88 77 73 67 56 54 54 58 69 77 60 47 40 37 36 25 37 46 40 39 28 23 17 8 7 14 15 10 3 356 9 19 14 13 10 1 1 358 353 316 304
112 111 95 74 69 64 56 67 61 67 69 76 72 67 58 50 48 45 57 50 44 32 25 26 29 23 29 29 27 19 16 23 26 20 18 17 11 2 5 11 6 16 57
101 87 78 70 66 66 65 67 67 70 71 70 67 65 61 63 62 49 45 33 27 32 29 32 38 38 38 37 35 29 33 37 33 32 24 22 19 8 13 2 31 48 78
100 87 73 65 60 57 63 65 64 62 60 58 58 55 52 52 53 45 34 21 20 35 35 38 40 43 42 40 34 34 36 39 38 34 32 31 19 15 31 27 20 44 73
100 89 69 56 62 57 53 53 62 60 59 56 51 43 44 44 38 20 10 11 16 25 45 42 40 42 38 39 39 37 36 37 32 31 28 31 20 20 26 24 48 34 37
100 86 63 52 58 62 65 66 67 72 74 70 64 59 49 41 42 359 357 17 30 38 44 46 38 35 36 34 34 34 34 35 35 36 32 24 19 18 21 25 42 59 45
95 85 73 65 74 72 72 73 68 59 71 70 66 60 54 49 46 35 27 37 53 48 50 44 37 31 31 32 34 32 33 34 33 34 34 32 28 23 18 24 40 51 52
86 96 84 74 75 69 67 70 77 64 63 59 55 52 51 44 37 42 49 58 54 49 48 38 35 32 31 31 32 31 31 32 33 34 34 35 33 27 23 32 40 47 48
95 77 76 76 65 58 63 63 58 57 59 67 71 60 50 50 41 36 42 44 45 46 44 36 33 32 31 31 32 32 32 32 31 34 34 35 33 34 28 35 40 44 43
97 106 98 90 72 69 66 66 62 59 55 49 49 61 64 59 47 38 46 41 41 42 41 35 32 31 31 30 30 32 30 32 35 34 35 35 36 39 39 29 35 36 40
99 107 121 118 106 95 84 82 82 73 72 60 47 56 67 68 60 46 42 42 36 37 35 34 33 32 30 29 29 29 30 29 32 35 34 37 36 35 40 45 39 40 41
85 94 89 81 83 101 91 79 78 74 74 73 58 54 62 67 65 60 48 42 30 30 32 33 33 31 29 27 27 27 25 26 28 35 35 38 38 37 39 42 44 44 42
103 106 102 98 87 79 87 94 86 74 69 72 67 53 53 59 63 60 56 44 28 22 23 32 33 32 30 29 28 26 23 23 27 32 37 39 36 40 36 40 41 42 46
93 85 86 93 84 78 81 74 84 80 68 63 66 61 48 53 53 58 54 48 30 16 17 24 30 28 26 27 28 28 25 22 23 38 42 42 38 37 40 38 42 40 42
126 119 112 103 96 98 90 79 67 69 75 63 50 53 45 42 45 43 44 37 28 14 13 15 24 23 24 23 25 26 26 25 23 31 46 44 46 41 42 35 36 40 42
129 143 138 130 121 102 98 104 94 80 70 74 64 47 42 30 36 34 26 22 17 12 10 13 16 21 21 22 22 21 21 24 25 28 37 40 42 44 48 39 35 33 33